Location: Penum?ka
(16.4840°N, 80.5772°E)
Time: 14:36:09
(UTC+00:00)

Meteor 1-27 - Pass Details

Date: 19 May 2025
Orbit: 838 x 889 km, 81.3° (Epoch: 18 June)

Event Time Altitude Azimuth Distance (km) Brightness Sun altitude
Rises 13:25:51 0° 186° (S) 3,395 7.2 -6.0°
Reaches altitude 10° 13:28:15 10° 186° (S) 2,456 6.5 -6.5°
Maximum altitude 13:33:49 88° 272° (W) 843 4.3 -7.8°
Drops below altitude 10° 13:39:22 10° 5° (N) 2,448 6.9 -9.0°
Sets 13:41:46 0° 6° (N) 3,383 7.6 -9.5°
